M I D A S
Marine Information and Data Acquisition System
Tripno 1286 of the Zeeleeuw from 2007-06-13 04:51:31 to 2007-06-13 16:40:16
Back to CruiseResearch ActivitiesStationsMapUnderway DataData graphs

EquipmentUnitsComment
TimeDGPSUTC
LatitudeDGPSDM.mWGS84
LongitudeDGPSDM.mWGS84
TemperatureSBE03/SBE38deg celciusITS90
ConductivitySBE21S/mITS90
SalinitySBE21 Practical Salinity Units
ChlorophylAChelsea fluorimeterg/lCalibrated in Aceton
Missing or incorrect values are displayed as -999
Sea surface data collected by the RV Zeeleeuw from 2007-06-13 04:51:50 to 2007-06-13 16:52:21
Time Latitude Longitude Temperature Conductivity Salinity ChlorophylA
2007-06-13 04:52:55 51°13.608 2°56.055 -999 -999 -999 -999
2007-06-13 04:53:55 51°13.608 2°56.05 -999 -999 -999 -999
2007-06-13 04:54:55 51°13.582 2°56.096 -999 -999 -999 -999
2007-06-13 04:55:55 51°13.542 2°56.158 -999 -999 -999 -999
2007-06-13 04:56:55 51°13.535 2°56.227 -999 -999 -999 -999
2007-06-13 04:57:55 51°13.537 2°56.237 -999 -999 -999 -999
2007-06-13 04:58:55 51°13.542 2°56.238 -999 -999 -999 -999
2007-06-13 04:59:55 51°13.524 2°56.235 -999 -999 -999 -999
2007-06-13 05:00:55 51°13.521 2°56.232 -999 -999 -999 -999
2007-06-13 05:01:55 51°13.553 2°56.173 -999 -999 -999 -999
2007-06-13 05:02:55 51°13.6 2°56.037 -999 -999 -999 -999
2007-06-13 05:03:55 51°13.688 2°55.826 -999 -999 -999 -999
2007-06-13 05:04:55 51°13.802 2°55.653 -999 -999 -999 -999
2007-06-13 05:05:55 51°13.943 2°55.549 -999 -999 -999 -999
2007-06-13 05:06:55 51°14.095 2°55.447 -999 -999 -999 -999
2007-06-13 05:07:55 51°14.247 2°55.3 -999 -999 -999 -999
2007-06-13 05:08:55 51°14.388 2°55.083 -999 -999 -999 -999
2007-06-13 05:09:55 51°14.55 2°54.859 -999 -999 -999 -999
2007-06-13 05:10:55 51°14.719 2°54.646 -999 -999 -999 -999
2007-06-13 05:11:55 51°14.874 2°54.399 -999 -999 -999 -999
2007-06-13 05:12:55 51°14.941 2°54.07 -999 -999 -999 -999
2007-06-13 05:13:55 51°14.995 2°53.723 -999 -999 -999 -999
2007-06-13 05:14:55 51°15.061 2°53.379 -999 -999 -999 -999
2007-06-13 05:15:55 51°15.123 2°53.027 -999 -999 -999 -999
2007-06-13 05:16:55 51°15.183 2°52.671 -999 -999 -999 -999
2007-06-13 05:17:55 51°15.243 2°52.315 -999 -999 -999 -999
2007-06-13 05:18:55 51°15.293 2°51.954 -999 -999 -999 -999
2007-06-13 05:19:55 51°15.312 2°51.583 -999 -999 -999 -999
2007-06-13 05:20:55 51°15.319 2°51.209 -999 -999 -999 -999
2007-06-13 05:21:55 51°15.327 2°50.833 -999 -999 -999 -999
2007-06-13 05:22:55 51°15.336 2°50.46 -999 -999 -999 -999
2007-06-13 05:23:55 51°15.345 2°50.084 -999 -999 -999 -999
2007-06-13 05:24:55 51°15.356 2°49.714 -999 -999 -999 -999
2007-06-13 05:25:55 51°15.355 2°49.343 -999 -999 -999 -999
2007-06-13 05:26:55 51°15.353 2°48.972 -999 -999 -999 -999
2007-06-13 05:27:55 51°15.352 2°48.601 -999 -999 -999 -999
2007-06-13 05:28:55 51°15.35 2°48.236 -999 -999 -999 -999
2007-06-13 05:29:55 51°15.348 2°47.874 -999 -999 -999 -999
2007-06-13 05:30:55 51°15.345 2°47.511 -999 -999 -999 -999
2007-06-13 05:31:55 51°15.332 2°47.143 -999 -999 -999 -999
2007-06-13 05:32:55 51°15.319 2°46.773 -999 -999 -999 -999
2007-06-13 05:33:55 51°15.305 2°46.401 -999 -999 -999 -999
2007-06-13 05:34:55 51°15.291 2°46.027 -999 -999 -999 -999
2007-06-13 05:35:55 51°15.276 2°45.653 -999 -999 -999 -999
2007-06-13 05:36:55 51°15.261 2°45.278 -999 -999 -999 -999
2007-06-13 05:37:55 51°15.246 2°44.901 -999 -999 -999 -999
2007-06-13 05:38:55 51°15.23 2°44.524 -999 -999 -999 -999
2007-06-13 05:39:55 51°15.215 2°44.148 -999 -999 -999 -999
2007-06-13 05:40:55 51°15.199 2°43.78 -999 -999 -999 -999
2007-06-13 05:41:55 51°15.181 2°43.415 -999 -999 -999 -999
2007-06-13 05:42:55 51°15.163 2°43.05 -999 -999 -999 -999
2007-06-13 05:43:55 51°15.171 2°42.688 -999 -999 -999 -999
2007-06-13 05:44:55 51°15.208 2°42.334 -999 -999 -999 -999
2007-06-13 05:45:55 51°15.287 2°42.006 -999 -999 -999 -999
2007-06-13 05:46:55 51°15.379 2°41.686 -999 -999 -999 -999
2007-06-13 05:47:55 51°15.499 2°41.401 -999 -999 -999 -999
2007-06-13 05:48:55 51°15.644 2°41.146 -999 -999 -999 -999
2007-06-13 05:49:55 51°15.79 2°40.89 -999 -999 -999 -999
2007-06-13 05:50:55 51°15.935 2°40.632 -999 -999 -999 -999
2007-06-13 05:51:55 51°16.081 2°40.379 -999 -999 -999 -999
2007-06-13 05:52:55 51°16.227 2°40.125 -999 -999 -999 -999
2007-06-13 05:53:55 51°16.372 2°39.868 -999 -999 -999 -999
2007-06-13 05:54:55 51°16.517 2°39.609 -999 -999 -999 -999
2007-06-13 05:55:55 51°16.654 2°39.339 -999 -999 -999 -999
2007-06-13 05:56:55 51°16.768 2°39.036 -999 -999 -999 -999
2007-06-13 05:57:55 51°16.89 2°38.742 -999 -999 -999 -999
2007-06-13 05:58:55 51°17.024 2°38.446 -999 -999 -999 -999
2007-06-13 05:59:55 51°17.167 2°38.172 -999 -999 -999 -999
2007-06-13 06:00:55 51°17.33 2°37.931 -999 -999 -999 -999
2007-06-13 06:01:55 51°17.5 2°37.71 -999 -999 -999 -999
2007-06-13 06:02:55 51°17.671 2°37.497 -999 -999 -999 -999
2007-06-13 06:03:55 51°17.839 2°37.285 -999 -999 -999 -999
2007-06-13 06:04:55 51°18.005 2°37.07 -999 -999 -999 -999
2007-06-13 06:05:55 51°18.171 2°36.856 -999 -999 -999 -999
2007-06-13 06:06:55 51°18.339 2°36.641 -999 -999 -999 -999
2007-06-13 06:07:55 51°18.509 2°36.421 -999 -999 -999 -999
2007-06-13 06:08:55 51°18.68 2°36.2 -999 -999 -999 -999
2007-06-13 06:09:55 51°18.85 2°35.979 -999 -999 -999 -999
2007-06-13 06:10:55 51°19.02 2°35.762 -999 -999 -999 -999
2007-06-13 06:11:55 51°19.203 2°35.598 -999 -999 -999 -999
2007-06-13 06:12:55 51°19.4 2°35.487 -999 -999 -999 -999
2007-06-13 06:13:55 51°19.597 2°35.374 -999 -999 -999 -999
2007-06-13 06:14:55 51°19.792 2°35.259 -999 -999 -999 -999
2007-06-13 06:15:55 51°19.988 2°35.14 -999 -999 -999 -999
2007-06-13 06:16:55 51°20.185 2°35.019 -999 -999 -999 -999
2007-06-13 06:17:55 51°20.382 2°34.889 -999 -999 -999 -999
2007-06-13 06:18:55 51°20.58 2°34.766 -999 -999 -999 -999
2007-06-13 06:19:55 51°20.778 2°34.637 -999 -999 -999 -999
2007-06-13 06:20:55 51°20.975 2°34.51 -999 -999 -999 -999
2007-06-13 06:21:55 51°21.174 2°34.385 -999 -999 -999 -999
2007-06-13 06:22:55 51°21.372 2°34.258 -999 -999 -999 -999
2007-06-13 06:23:55 51°21.572 2°34.135 -999 -999 -999 -999
2007-06-13 06:24:55 51°21.77 2°34.018 -999 -999 -999 -999
2007-06-13 06:25:55 51°21.968 2°33.905 -999 -999 -999 -999
2007-06-13 06:26:55 51°22.164 2°33.792 -999 -999 -999 -999
2007-06-13 06:27:55 51°22.357 2°33.673 -999 -999 -999 -999
2007-06-13 06:28:55 51°22.549 2°33.55 -999 -999 -999 -999
2007-06-13 06:29:55 51°22.744 2°33.424 -999 -999 -999 -999
2007-06-13 06:30:55 51°22.939 2°33.296 -999 -999 -999 -999
2007-06-13 06:31:55 51°23.09 2°33.057 -999 -999 -999 -999
2007-06-13 06:32:55 51°23.137 2°32.703 -999 -999 -999 -999
2007-06-13 06:33:55 51°23.119 2°32.319 -999 -999 -999 -999
2007-06-13 06:34:55 51°23.121 2°31.937 -999 -999 -999 -999
2007-06-13 06:35:55 51°23.149 2°31.561 -999 -999 -999 -999
2007-06-13 06:36:55 51°23.202 2°31.197 -999 -999 -999 -999
2007-06-13 06:37:55 51°23.266 2°30.843 -999 -999 -999 -999
2007-06-13 06:38:55 51°23.344 2°30.499 -999 -999 -999 -999
2007-06-13 06:39:55 51°23.434 2°30.173 -999 -999 -999 -999
2007-06-13 06:40:55 51°23.525 2°29.906 -999 -999 -999 -999
2007-06-13 06:41:55 51°23.585 2°29.764 -999 -999 -999 -999
2007-06-13 06:42:55 51°23.627 2°29.695 -999 -999 -999 -999
2007-06-13 06:43:55 51°23.671 2°29.693 -999 -999 -999 -999
2007-06-13 06:44:55 51°23.701 2°29.736 -999 -999 -999 -999
2007-06-13 06:45:56 51°23.73 2°29.773 -999 -999 -999 -999
2007-06-13 06:46:55 51°23.73 2°29.793 -999 -999 -999 -999
2007-06-13 06:47:55 51°23.719 2°29.803 -999 -999 -999 -999
2007-06-13 06:48:55 51°23.708 2°29.813 -999 -999 -999 -999
2007-06-13 06:49:55 51°23.697 2°29.822 -999 -999 -999 -999
2007-06-13 06:50:55 51°23.691 2°29.841 -999 -999 -999 -999
2007-06-13 06:51:55 51°23.715 2°29.847 -999 -999 -999 -999
2007-06-13 06:52:55 51°23.736 2°29.818 -999 -999 -999 -999
2007-06-13 06:53:55 51°23.732 2°29.792 -999 -999 -999 -999
2007-06-13 06:54:55 51°23.717 2°29.78 -999 -999 -999 -999
2007-06-13 06:55:55 51°23.703 2°29.766 -999 -999 -999 -999
2007-06-13 06:56:55 51°23.687 2°29.757 -999 -999 -999 -999
2007-06-13 06:57:55 51°23.677 2°29.745 -999 -999 -999 -999
2007-06-13 06:58:55 51°23.693 2°29.726 -999 -999 -999 -999
2007-06-13 06:59:55 51°23.712 2°29.746 -999 -999 -999 -999
2007-06-13 07:00:55 51°23.73 2°29.766 -999 -999 -999 -999
2007-06-13 07:01:56 51°23.742 2°29.794 -999 -999 -999 -999
2007-06-13 07:02:55 51°23.732 2°29.801 -999 -999 -999 -999
2007-06-13 07:03:56 51°23.718 2°29.786 -999 -999 -999 -999
2007-06-13 07:04:55 51°23.709 2°29.767 -999 -999 -999 -999
2007-06-13 07:05:55 51°23.703 2°29.744 -999 -999 -999 -999
2007-06-13 07:06:55 51°23.695 2°29.716 -999 -999 -999 -999
2007-06-13 07:07:55 51°23.683 2°29.715 -999 -999 -999 -999
2007-06-13 07:08:55 51°23.687 2°29.753 -999 -999 -999 -999
2007-06-13 07:09:55 51°23.712 2°29.794 -999 -999 -999 -999
2007-06-13 07:10:56 51°23.732 2°29.825 -999 -999 -999 -999
2007-06-13 07:11:55 51°23.749 2°29.814 -999 -999 -999 -999
2007-06-13 07:12:56 51°23.739 2°29.8 -999 -999 -999 -999
2007-06-13 07:13:55 51°23.725 2°29.793 -999 -999 -999 -999
2007-06-13 07:14:55 51°23.711 2°29.784 -999 -999 -999 -999
2007-06-13 07:15:55 51°23.698 2°29.776 -999 -999 -999 -999
2007-06-13 07:16:55 51°23.686 2°29.77 -999 -999 -999 -999
2007-06-13 07:17:56 51°23.674 2°29.763 -999 -999 -999 -999
2007-06-13 07:18:55 51°23.675 2°29.746 -999 -999 -999 -999
2007-06-13 07:19:55 51°23.701 2°29.726 -999 -999 -999 -999
2007-06-13 07:20:55 51°23.734 2°29.745 -999 -999 -999 -999
2007-06-13 07:21:55 51°23.75 2°29.778 -999 -999 -999 -999
2007-06-13 07:22:55 51°23.746 2°29.805 -999 -999 -999 -999
2007-06-13 07:23:55 51°23.732 2°29.805 -999 -999 -999 -999
2007-06-13 07:24:55 51°23.723 2°29.778 -999 -999 -999 -999
2007-06-13 07:25:55 51°23.712 2°29.761 -999 -999 -999 -999
2007-06-13 07:26:55 51°23.7 2°29.757 -999 -999 -999 -999
2007-06-13 07:27:55 51°23.685 2°29.756 -999 -999 -999 -999
2007-06-13 07:28:56 51°23.668 2°29.753 -999 -999 -999 -999
2007-06-13 07:29:55 51°23.647 2°29.772 -999 -999 -999 -999
2007-06-13 07:30:55 51°23.652 2°29.821 -999 -999 -999 -999
2007-06-13 07:31:55 51°23.731 2°29.812 -999 -999 -999 -999
2007-06-13 07:32:55 51°23.91 2°29.836 -999 -999 -999 -999
2007-06-13 07:33:55 51°24.108 2°29.865 -999 -999 -999 -999
2007-06-13 07:34:55 51°24.308 2°29.883 -999 -999 -999 -999
2007-06-13 07:35:55 51°24.508 2°29.902 -999 -999 -999 -999
2007-06-13 07:36:55 51°24.708 2°29.926 -999 -999 -999 -999
2007-06-13 07:37:55 51°24.906 2°29.949 -999 -999 -999 -999
2007-06-13 07:38:55 51°25.104 2°29.985 -999 -999 -999 -999
2007-06-13 07:39:55 51°25.304 2°30.013 -999 -999 -999 -999
2007-06-13 07:40:55 51°25.499 2°30.046 -999 -999 -999 -999
2007-06-13 07:41:55 51°25.607 2°30.101 -999 -999 -999 -999
2007-06-13 07:42:55 51°25.673 2°30.117 -999 -999 -999 -999
2007-06-13 07:43:55 51°25.711 2°30.163 -999 -999 -999 -999
2007-06-13 07:44:55 51°25.761 2°30.21 -999 -999 -999 -999
2007-06-13 07:45:55 51°25.826 2°30.263 -999 -999 -999 -999
2007-06-13 07:46:55 51°25.89 2°30.332 -999 -999 -999 -999
2007-06-13 07:47:55 51°25.96 2°30.389 -999 -999 -999 -999
2007-06-13 07:48:55 51°26.007 2°30.439 -999 -999 -999 -999
2007-06-13 07:49:55 51°26.035 2°30.428 -999 -999 -999 -999
2007-06-13 07:50:55 51°26.047 2°30.401 -999 -999 -999 -999
2007-06-13 07:51:55 51°26.049 2°30.381 -999 -999 -999 -999
2007-06-13 07:52:55 51°26.047 2°30.372 -999 -999 -999 -999
2007-06-13 07:53:55 51°26.043 2°30.369 -999 -999 -999 -999
2007-06-13 07:54:55 51°26.037 2°30.369 -999 -999 -999 -999
2007-06-13 07:55:55 51°26.032 2°30.368 -999 -999 -999 -999
2007-06-13 07:56:55 51°26.025 2°30.37 -999 -999 -999 -999
2007-06-13 07:57:55 51°26.019 2°30.371 -999 -999 -999 -999
2007-06-13 07:58:55 51°26.014 2°30.372 -999 -999 -999 -999
2007-06-13 07:59:55 51°26.024 2°30.306 -999 -999 -999 -999
2007-06-13 08:00:55 51°25.944 2°30.245 -999 -999 -999 -999
2007-06-13 08:01:55 51°25.813 2°30.3 -999 -999 -999 -999
2007-06-13 08:02:55 51°25.697 2°30.377 -999 -999 -999 -999
2007-06-13 08:03:55 51°25.617 2°30.3 -999 -999 -999 -999
2007-06-13 08:04:55 51°25.617 2°30.222 -999 -999 -999 -999
2007-06-13 08:05:55 51°25.626 2°30.195 -999 -999 -999 -999
2007-06-13 08:06:55 51°25.631 2°30.177 -999 -999 -999 -999
2007-06-13 08:07:55 51°25.632 2°30.169 -999 -999 -999 -999
2007-06-13 08:08:55 51°25.632 2°30.166 -999 -999 -999 -999
2007-06-13 08:09:55 51°25.631 2°30.166 -999 -999 -999 -999
2007-06-13 08:10:55 51°25.629 2°30.168 -999 -999 -999 -999
2007-06-13 08:11:55 51°25.628 2°30.172 -999 -999 -999 -999
2007-06-13 08:12:55 51°25.626 2°30.176 -999 -999 -999 -999
2007-06-13 08:13:55 51°25.623 2°30.183 -999 -999 -999 -999
2007-06-13 08:14:55 51°25.62 2°30.189 -999 -999 -999 -999
2007-06-13 08:15:55 51°25.617 2°30.197 -999 -999 -999 -999
2007-06-13 08:16:55 51°25.629 2°30.199 -999 -999 -999 -999
2007-06-13 08:17:55 51°25.658 2°30.22 -999 -999 -999 -999
2007-06-13 08:18:55 51°25.668 2°30.279 -999 -999 -999 -999
2007-06-13 08:19:55 51°25.66 2°30.326 -999 -999 -999 -999
2007-06-13 08:20:55 51°25.649 2°30.36 -999 -999 -999 -999
2007-06-13 08:21:55 51°25.64 2°30.412 -999 -999 -999 -999
2007-06-13 08:22:55 51°25.635 2°30.487 -999 -999 -999 -999
2007-06-13 08:23:55 51°25.625 2°30.54 -999 -999 -999 -999
2007-06-13 08:24:55 51°25.614 2°30.576 -999 -999 -999 -999
2007-06-13 08:25:55 51°25.602 2°30.604 -999 -999 -999 -999
2007-06-13 08:26:55 51°25.583 2°30.63 -999 -999 -999 -999
2007-06-13 08:27:55 51°25.558 2°30.648 -999 -999 -999 -999
2007-06-13 08:28:55 51°25.528 2°30.651 -999 -999 -999 -999
2007-06-13 08:29:55 51°25.5 2°30.637 -999 -999 -999 -999
2007-06-13 08:30:55 51°25.485 2°30.606 -999 -999 -999 -999
2007-06-13 08:31:55 51°25.478 2°30.577 -999 -999 -999 -999
2007-06-13 08:32:55 51°25.468 2°30.551 -999 -999 -999 -999
2007-06-13 08:33:55 51°25.461 2°30.526 -999 -999 -999 -999
2007-06-13 08:34:55 51°25.457 2°30.507 -999 -999 -999 -999
2007-06-13 08:35:55 51°25.458 2°30.501 -999 -999 -999 -999
2007-06-13 08:36:55 51°25.464 2°30.509 -999 -999 -999 -999
2007-06-13 08:37:56 51°25.468 2°30.527 -999 -999 -999 -999
2007-06-13 08:38:55 51°25.47 2°30.548 -999 -999 -999 -999
2007-06-13 08:39:55 51°25.472 2°30.565 -999 -999 -999 -999
2007-06-13 08:40:55 51°25.475 2°30.583 -999 -999 -999 -999
2007-06-13 08:41:55 51°25.479 2°30.601 -999 -999 -999 -999
2007-06-13 08:42:55 51°25.486 2°30.618 -999 -999 -999 -999
2007-06-13 08:43:55 51°25.494 2°30.633 -999 -999 -999 -999
2007-06-13 08:44:55 51°25.501 2°30.648 -999 -999 -999 -999
2007-06-13 08:45:55 51°25.508 2°30.666 -999 -999 -999 -999
2007-06-13 08:46:55 51°25.515 2°30.684 -999 -999 -999 -999
2007-06-13 08:47:55 51°25.522 2°30.703 -999 -999 -999 -999
2007-06-13 08:48:55 51°25.529 2°30.724 -999 -999 -999 -999
2007-06-13 08:49:55 51°25.544 2°30.737 -999 -999 -999 -999
2007-06-13 08:50:55 51°25.571 2°30.723 -999 -999 -999 -999
2007-06-13 08:51:55 51°25.601 2°30.69 -999 -999 -999 -999
2007-06-13 08:52:55 51°25.626 2°30.667 -999 -999 -999 -999
2007-06-13 08:53:55 51°25.645 2°30.658 -999 -999 -999 -999
2007-06-13 08:54:55 51°25.66 2°30.663 -999 -999 -999 -999
2007-06-13 08:55:56 51°25.681 2°30.658 -999 -999 -999 -999
2007-06-13 08:56:55 51°25.771 2°30.588 -999 -999 -999 -999
2007-06-13 08:57:55 51°25.913 2°30.489 -999 -999 -999 -999
2007-06-13 08:58:55 51°25.975 2°30.468 -999 -999 -999 -999
2007-06-13 08:59:55 51°25.998 2°30.497 -999 -999 -999 -999
2007-06-13 09:00:55 51°26.021 2°30.533 -999 -999 -999 -999
2007-06-13 09:01:55 51°26.043 2°30.567 -999 -999 -999 -999
2007-06-13 09:02:55 51°26.064 2°30.6 -999 -999 -999 -999
2007-06-13 09:03:55 51°26.084 2°30.633 -999 -999 -999 -999
2007-06-13 09:04:55 51°26.103 2°30.667 -999 -999 -999 -999
2007-06-13 09:05:55 51°26.121 2°30.701 -999 -999 -999 -999
2007-06-13 09:06:55 51°26.165 2°30.707 -999 -999 -999 -999
2007-06-13 09:07:55 51°26.304 2°30.608 -999 -999 -999 -999
2007-06-13 09:08:55 51°26.475 2°30.438 -999 -999 -999 -999
2007-06-13 09:09:55 51°26.646 2°30.261 -999 -999 -999 -999
2007-06-13 09:10:55 51°26.815 2°30.091 -999 -999 -999 -999
2007-06-13 09:11:56 51°26.99 2°29.919 -999 -999 -999 -999
2007-06-13 09:12:55 51°27.168 2°29.741 -999 -999 -999 -999
2007-06-13 09:13:56 51°27.374 2°29.614 -999 -999 -999 -999
2007-06-13 09:14:55 51°27.597 2°29.651 -999 -999 -999 -999
2007-06-13 09:15:55 51°27.807 2°29.639 -999 -999 -999 -999
2007-06-13 09:16:55 51°27.916 2°29.519 -999 -999 -999 -999
2007-06-13 09:17:55 51°27.946 2°29.382 -999 -999 -999 -999
2007-06-13 09:18:55 51°27.927 2°29.287 -999 -999 -999 -999
2007-06-13 09:19:55 51°27.91 2°29.226 -999 -999 -999 -999
2007-06-13 09:20:55 51°27.896 2°29.183 -999 -999 -999 -999
2007-06-13 09:21:55 51°27.882 2°29.149 -999 -999 -999 -999
2007-06-13 09:22:55 51°27.865 2°29.129 -999 -999 -999 -999
2007-06-13 09:23:55 51°27.856 2°29.128 -999 -999 -999 -999
2007-06-13 09:24:55 51°27.855 2°29.146 -999 -999 -999 -999
2007-06-13 09:25:55 51°27.861 2°29.176 -999 -999 -999 -999
2007-06-13 09:26:55 51°27.872 2°29.213 -999 -999 -999 -999
2007-06-13 09:27:56 51°27.886 2°29.254 -999 -999 -999 -999
2007-06-13 09:28:55 51°27.883 2°29.302 -999 -999 -999 -999
2007-06-13 09:29:56 51°27.857 2°29.311 -999 -999 -999 -999
2007-06-13 09:30:55 51°27.847 2°29.28 -999 -999 -999 -999
2007-06-13 09:31:55 51°27.848 2°29.232 -999 -999 -999 -999
2007-06-13 09:32:55 51°27.84 2°29.183 -999 -999 -999 -999
2007-06-13 09:33:55 51°27.836 2°29.14 -999 -999 -999 -999
2007-06-13 09:34:56 51°27.849 2°29.122 -999 -999 -999 -999
2007-06-13 09:35:55 51°27.867 2°29.129 -999 -999 -999 -999
2007-06-13 09:36:55 51°27.887 2°29.155 -999 -999 -999 -999
2007-06-13 09:37:55 51°27.906 2°29.186 -999 -999 -999 -999
2007-06-13 09:38:55 51°27.927 2°29.222 -999 -999 -999 -999
2007-06-13 09:39:55 51°27.948 2°29.258 -999 -999 -999 -999
2007-06-13 09:40:55 51°27.99 2°29.273 -999 -999 -999 -999
2007-06-13 09:41:55 51°28.056 2°29.379 -999 -999 -999 -999
2007-06-13 09:42:55 51°28.017 2°29.52 -999 -999 -999 -999
2007-06-13 09:43:55 51°27.868 2°29.55 -999 -999 -999 -999
2007-06-13 09:44:55 51°27.67 2°29.568 -999 -999 -999 -999
2007-06-13 09:45:56 51°27.465 2°29.583 -999 -999 -999 -999
2007-06-13 09:46:55 51°27.271 2°29.599 -999 -999 -999 -999
2007-06-13 09:47:56 51°27.069 2°29.616 -999 -999 -999 -999
2007-06-13 09:48:55 51°26.873 2°29.633 -999 -999 -999 -999
2007-06-13 09:49:56 51°26.668 2°29.656 -999 -999 -999 -999
2007-06-13 09:50:55 51°26.468 2°29.685 -999 -999 -999 -999
2007-06-13 09:51:55 51°26.259 2°29.71 -999 -999 -999 -999
2007-06-13 09:52:55 51°26.051 2°29.708 -999 -999 -999 -999
2007-06-13 09:53:55 51°25.86 2°29.611 -999 -999 -999 -999
2007-06-13 09:54:55 51°25.679 2°29.475 -999 -999 -999 -999
2007-06-13 09:55:55 51°25.502 2°29.33 -999 -999 -999 -999
2007-06-13 09:56:55 51°25.326 2°29.184 -999 -999 -999 -999
2007-06-13 09:57:55 51°25.151 2°29.039 -999 -999 -999 -999
2007-06-13 09:58:55 51°24.993 2°28.913 -999 -999 -999 -999
2007-06-13 09:59:55 51°24.907 2°28.833 -999 -999 -999 -999
2007-06-13 10:00:55 51°24.844 2°28.762 -999 -999 -999 -999
2007-06-13 10:01:56 51°24.809 2°28.736 -999 -999 -999 -999
2007-06-13 10:02:55 51°24.794 2°28.726 -999 -999 -999 -999
2007-06-13 10:03:56 51°24.783 2°28.722 -999 -999 -999 -999
2007-06-13 10:04:55 51°24.782 2°28.719 -999 -999 -999 -999
2007-06-13 10:05:56 51°24.78 2°28.721 -999 -999 -999 -999
2007-06-13 10:06:55 51°24.768 2°28.723 -999 -999 -999 -999
2007-06-13 10:07:56 51°24.776 2°28.719 -999 -999 -999 -999
2007-06-13 10:08:55 51°24.795 2°28.733 -999 -999 -999 -999
2007-06-13 10:09:55 51°24.813 2°28.758 -999 -999 -999 -999
2007-06-13 10:10:56 51°24.834 2°28.789 -999 -999 -999 -999
2007-06-13 10:11:55 51°24.846 2°28.794 -999 -999 -999 -999
2007-06-13 10:12:56 51°24.825 2°28.751 -999 -999 -999 -999
2007-06-13 10:13:55 51°24.797 2°28.712 -999 -999 -999 -999
2007-06-13 10:14:55 51°24.782 2°28.696 -999 -999 -999 -999
2007-06-13 10:15:55 51°24.771 2°28.716 -999 -999 -999 -999
2007-06-13 10:16:55 51°24.778 2°28.766 -999 -999 -999 -999
2007-06-13 10:17:55 51°24.792 2°28.821 -999 -999 -999 -999
2007-06-13 10:18:55 51°24.808 2°28.877 -999 -999 -999 -999
2007-06-13 10:19:55 51°24.809 2°28.946 -999 -999 -999 -999
2007-06-13 10:20:55 51°24.776 2°28.974 -999 -999 -999 -999
2007-06-13 10:21:55 51°24.756 2°28.918 -999 -999 -999 -999
2007-06-13 10:22:55 51°24.743 2°28.827 -999 -999 -999 -999
2007-06-13 10:23:55 51°24.742 2°28.754 -999 -999 -999 -999
2007-06-13 10:24:55 51°24.746 2°28.719 -999 -999 -999 -999
2007-06-13 10:25:55 51°24.757 2°28.704 -999 -999 -999 -999
2007-06-13 10:26:55 51°24.777 2°28.715 -999 -999 -999 -999
2007-06-13 10:27:55 51°24.798 2°28.745 -999 -999 -999 -999
2007-06-13 10:28:55 51°24.82 2°28.783 -999 -999 -999 -999
2007-06-13 10:29:55 51°24.844 2°28.811 -999 -999 -999 -999
2007-06-13 10:30:55 51°24.853 2°28.799 -999 -999 -999 -999
2007-06-13 10:31:55 51°24.843 2°28.765 -999 -999 -999 -999
2007-06-13 10:32:55 51°24.817 2°28.73 -999 -999 -999 -999
2007-06-13 10:33:55 51°24.784 2°28.7 -999 -999 -999 -999
2007-06-13 10:34:55 51°24.772 2°28.721 -999 -999 -999 -999
2007-06-13 10:35:55 51°24.784 2°28.769 -999 -999 -999 -999
2007-06-13 10:36:55 51°24.8 2°28.82 -999 -999 -999 -999
2007-06-13 10:37:55 51°24.817 2°28.871 -999 -999 -999 -999
2007-06-13 10:38:55 51°24.835 2°28.923 -999 -999 -999 -999
2007-06-13 10:39:55 51°24.839 2°28.995 -999 -999 -999 -999
2007-06-13 10:40:55 51°24.791 2°29.149 -999 -999 -999 -999
2007-06-13 10:41:55 51°24.736 2°29.466 -999 -999 -999 -999
2007-06-13 10:42:55 51°24.718 2°29.849 -999 -999 -999 -999
2007-06-13 10:43:55 51°24.73 2°30.245 -999 -999 -999 -999
2007-06-13 10:44:55 51°24.739 2°30.643 -999 -999 -999 -999
2007-06-13 10:45:55 51°24.742 2°31.028 -999 -999 -999 -999
2007-06-13 10:46:55 51°24.744 2°31.422 -999 -999 -999 -999
2007-06-13 10:47:55 51°24.749 2°31.821 -999 -999 -999 -999
2007-06-13 10:48:55 51°24.736 2°32.205 -999 -999 -999 -999
2007-06-13 10:49:55 51°24.691 2°32.564 -999 -999 -999 -999
2007-06-13 10:50:55 51°24.69 2°32.792 -999 -999 -999 -999
2007-06-13 10:51:55 51°24.678 2°32.935 -999 -999 -999 -999
2007-06-13 10:52:55 51°24.638 2°33.011 -999 -999 -999 -999
2007-06-13 10:53:55 51°24.605 2°33.014 -999 -999 -999 -999
2007-06-13 10:54:55 51°24.579 2°32.979 -999 -999 -999 -999
2007-06-13 10:55:55 51°24.558 2°32.936 -999 -999 -999 -999
2007-06-13 10:56:55 51°24.555 2°32.909 -999 -999 -999 -999
2007-06-13 10:57:55 51°24.547 2°32.89 -999 -999 -999 -999
2007-06-13 10:58:55 51°24.534 2°32.903 -999 -999 -999 -999
2007-06-13 10:59:55 51°24.534 2°32.957 -999 -999 -999 -999
2007-06-13 11:00:55 51°24.541 2°33.027 -999 -999 -999 -999
2007-06-13 11:01:55 51°24.548 2°33.096 -999 -999 -999 -999
2007-06-13 11:02:55 51°24.536 2°33.088 -999 -999 -999 -999
2007-06-13 11:03:55 51°24.652 2°33.029 -999 -999 -999 -999
2007-06-13 11:04:55 51°24.816 2°33.256 -999 -999 -999 -999
2007-06-13 11:05:55 51°25.016 2°33.443 -999 -999 -999 -999
2007-06-13 11:06:55 51°25.234 2°33.573 -999 -999 -999 -999
2007-06-13 11:07:55 51°25.409 2°33.798 -999 -999 -999 -999
2007-06-13 11:08:55 51°25.457 2°34.167 -999 -999 -999 -999
2007-06-13 11:09:56 51°25.497 2°34.547 -999 -999 -999 -999
2007-06-13 11:10:56 51°25.594 2°34.885 -999 -999 -999 -999
2007-06-13 11:11:56 51°25.732 2°35.192 -999 -999 -999 -999
2007-06-13 11:12:56 51°25.875 2°35.501 -999 -999 -999 -999
2007-06-13 11:13:56 51°26.012 2°35.819 -999 -999 -999 -999
2007-06-13 11:14:56 51°26.007 2°36.158 -999 -999 -999 -999
2007-06-13 11:15:56 51°25.868 2°36.397 -999 -999 -999 -999
2007-06-13 11:16:56 51°25.736 2°36.519 -999 -999 -999 -999
2007-06-13 11:17:56 51°25.635 2°36.498 -999 -999 -999 -999
2007-06-13 11:18:56 51°25.579 2°36.419 -999 -999 -999 -999
2007-06-13 11:19:56 51°25.562 2°36.36 -999 -999 -999 -999
2007-06-13 11:20:56 51°25.554 2°36.341 -999 -999 -999 -999
2007-06-13 11:21:56 51°25.544 2°36.342 -999 -999 -999 -999
2007-06-13 11:22:56 51°25.53 2°36.328 -999 -999 -999 -999
2007-06-13 11:23:56 51°25.518 2°36.33 -999 -999 -999 -999
2007-06-13 11:24:56 51°25.517 2°36.369 -999 -999 -999 -999
2007-06-13 11:25:56 51°25.522 2°36.415 -999 -999 -999 -999
2007-06-13 11:26:56 51°25.532 2°36.464 -999 -999 -999 -999
2007-06-13 11:27:56 51°25.546 2°36.509 -999 -999 -999 -999
2007-06-13 11:28:56 51°25.562 2°36.554 -999 -999 -999 -999
2007-06-13 11:29:56 51°25.566 2°36.588 -999 -999 -999 -999
2007-06-13 11:30:56 51°25.552 2°36.561 -999 -999 -999 -999
2007-06-13 11:31:56 51°25.526 2°36.495 -999 -999 -999 -999
2007-06-13 11:32:56 51°25.511 2°36.425 -999 -999 -999 -999
2007-06-13 11:33:56 51°25.496 2°36.379 -999 -999 -999 -999
2007-06-13 11:34:56 51°25.494 2°36.345 -999 -999 -999 -999
2007-06-13 11:35:56 51°25.518 2°36.351 -999 -999 -999 -999
2007-06-13 11:36:56 51°25.548 2°36.39 -999 -999 -999 -999
2007-06-13 11:37:56 51°25.573 2°36.434 -999 -999 -999 -999
2007-06-13 11:38:56 51°25.596 2°36.478 -999 -999 -999 -999
2007-06-13 11:39:56 51°25.644 2°36.508 -999 -999 -999 -999
2007-06-13 11:40:56 51°25.674 2°36.461 -999 -999 -999 -999
2007-06-13 11:41:56 51°25.646 2°36.381 -999 -999 -999 -999
2007-06-13 11:42:56 51°25.591 2°36.345 -999 -999 -999 -999
2007-06-13 11:43:56 51°25.553 2°36.31 -999 -999 -999 -999
2007-06-13 11:44:56 51°25.528 2°36.31 -999 -999 -999 -999
2007-06-13 11:45:56 51°25.52 2°36.331 -999 -999 -999 -999
2007-06-13 11:46:56 51°25.521 2°36.372 -999 -999 -999 -999
2007-06-13 11:47:56 51°25.528 2°36.421 -999 -999 -999 -999
2007-06-13 11:48:56 51°25.539 2°36.476 -999 -999 -999 -999
2007-06-13 11:49:56 51°25.553 2°36.535 -999 -999 -999 -999
2007-06-13 11:50:56 51°25.571 2°36.596 -999 -999 -999 -999
2007-06-13 11:51:56 51°25.591 2°36.657 -999 -999 -999 -999
2007-06-13 11:52:56 51°25.612 2°36.718 -999 -999 -999 -999
2007-06-13 11:53:56 51°25.634 2°36.777 -999 -999 -999 -999
2007-06-13 11:54:56 51°25.644 2°36.847 -999 -999 -999 -999
2007-06-13 11:55:56 51°25.667 2°37.031 -999 -999 -999 -999
2007-06-13 11:56:56 51°25.798 2°37.325 -999 -999 -999 -999
2007-06-13 11:57:56 51°25.964 2°37.622 -999 -999 -999 -999
2007-06-13 11:58:56 51°26.134 2°37.921 -999 -999 -999 -999
2007-06-13 11:59:56 51°26.308 2°38.21 -999 -999 -999 -999
2007-06-13 12:00:56 51°26.481 2°38.502 -999 -999 -999 -999
2007-06-13 12:01:56 51°26.663 2°38.778 -999 -999 -999 -999
2007-06-13 12:02:56 51°26.851 2°39.042 -999 -999 -999 -999
2007-06-13 12:03:56 51°27.038 2°39.309 -999 -999 -999 -999
2007-06-13 12:04:56 51°27.223 2°39.578 -999 -999 -999 -999
2007-06-13 12:05:56 51°27.406 2°39.844 -999 -999 -999 -999
2007-06-13 12:06:56 51°27.589 2°40.111 -999 -999 -999 -999
2007-06-13 12:07:56 51°27.774 2°40.375 -999 -999 -999 -999
2007-06-13 12:08:56 51°27.96 2°40.641 -999 -999 -999 -999
2007-06-13 12:09:56 51°28.146 2°40.908 -999 -999 -999 -999
2007-06-13 12:10:56 51°28.333 2°41.176 -999 -999 -999 -999
2007-06-13 12:11:56 51°28.525 2°41.433 -999 -999 -999 -999
2007-06-13 12:12:56 51°28.737 2°41.567 -999 -999 -999 -999
2007-06-13 12:13:56 51°28.886 2°41.661 -999 -999 -999 -999
2007-06-13 12:14:55 51°28.992 2°41.681 -999 -999 -999 -999
2007-06-13 12:15:56 51°29.033 2°41.619 -999 -999 -999 -999
2007-06-13 12:16:56 51°29.017 2°41.552 -999 -999 -999 -999
2007-06-13 12:17:56 51°28.994 2°41.471 -999 -999 -999 -999
2007-06-13 12:18:55 51°28.979 2°41.403 -999 -999 -999 -999
2007-06-13 12:19:56 51°28.97 2°41.364 -999 -999 -999 -999
2007-06-13 12:20:56 51°28.956 2°41.356 -999 -999 -999 -999
2007-06-13 12:21:56 51°28.947 2°41.345 -999 -999 -999 -999
2007-06-13 12:22:56 51°28.938 2°41.333 -999 -999 -999 -999
2007-06-13 12:23:56 51°28.935 2°41.319 -999 -999 -999 -999
2007-06-13 12:24:56 51°28.933 2°41.319 -999 -999 -999 -999
2007-06-13 12:25:56 51°28.938 2°41.355 -999 -999 -999 -999
2007-06-13 12:26:56 51°28.949 2°41.402 -999 -999 -999 -999
2007-06-13 12:27:56 51°28.965 2°41.452 -999 -999 -999 -999
2007-06-13 12:28:56 51°28.982 2°41.501 -999 -999 -999 -999
2007-06-13 12:29:56 51°28.988 2°41.547 -999 -999 -999 -999
2007-06-13 12:30:55 51°28.975 2°41.55 -999 -999 -999 -999
2007-06-13 12:31:56 51°28.955 2°41.516 -999 -999 -999 -999
2007-06-13 12:32:56 51°28.927 2°41.47 -999 -999 -999 -999
2007-06-13 12:33:56 51°28.913 2°41.412 -999 -999 -999 -999
2007-06-13 12:34:56 51°28.912 2°41.373 -999 -999 -999 -999
2007-06-13 12:35:56 51°28.912 2°41.348 -999 -999 -999 -999
2007-06-13 12:36:56 51°28.932 2°41.339 -999 -999 -999 -999
2007-06-13 12:37:56 51°28.962 2°41.354 -999 -999 -999 -999
2007-06-13 12:38:56 51°28.992 2°41.383 -999 -999 -999 -999
2007-06-13 12:39:56 51°29.021 2°41.421 -999 -999 -999 -999
2007-06-13 12:40:56 51°29.047 2°41.46 -999 -999 -999 -999
2007-06-13 12:41:56 51°29.096 2°41.466 -999 -999 -999 -999
2007-06-13 12:42:56 51°29.108 2°41.39 -999 -999 -999 -999
2007-06-13 12:43:56 51°29.009 2°41.232 -999 -999 -999 -999
2007-06-13 12:44:56 51°28.887 2°41.002 -999 -999 -999 -999
2007-06-13 12:45:56 51°28.764 2°40.769 -999 -999 -999 -999
2007-06-13 12:46:55 51°28.642 2°40.537 -999 -999 -999 -999
2007-06-13 12:47:56 51°28.516 2°40.298 -999 -999 -999 -999
2007-06-13 12:48:56 51°28.392 2°40.062 -999 -999 -999 -999
2007-06-13 12:49:56 51°28.269 2°39.823 -999 -999 -999 -999
2007-06-13 12:50:56 51°28.144 2°39.586 -999 -999 -999 -999
2007-06-13 12:51:56 51°28.019 2°39.35 -999 -999 -999 -999
2007-06-13 12:52:56 51°27.894 2°39.113 -999 -999 -999 -999
2007-06-13 12:53:56 51°27.769 2°38.875 -999 -999 -999 -999
2007-06-13 12:54:56 51°27.645 2°38.637 -999 -999 -999 -999
2007-06-13 12:55:56 51°27.521 2°38.4 -999 -999 -999 -999
2007-06-13 12:56:56 51°27.396 2°38.162 -999 -999 -999 -999
2007-06-13 12:57:56 51°27.27 2°37.92 -999 -999 -999 -999
2007-06-13 12:58:56 51°27.142 2°37.679 -999 -999 -999 -999
2007-06-13 12:59:56 51°27.015 2°37.439 -999 -999 -999 -999
2007-06-13 13:00:56 51°26.887 2°37.2 -999 -999 -999 -999
2007-06-13 13:01:56 51°26.757 2°36.973 -999 -999 -999 -999
2007-06-13 13:02:56 51°26.632 2°36.745 -999 -999 -999 -999
2007-06-13 13:03:56 51°26.505 2°36.514 -999 -999 -999 -999
2007-06-13 13:04:55 51°26.381 2°36.286 -999 -999 -999 -999
2007-06-13 13:05:56 51°26.252 2°36.048 -999 -999 -999 -999
2007-06-13 13:06:56 51°26.124 2°35.811 -999 -999 -999 -999
2007-06-13 13:07:56 51°25.997 2°35.574 -999 -999 -999 -999
2007-06-13 13:08:56 51°25.868 2°35.332 -999 -999 -999 -999
2007-06-13 13:09:56 51°25.739 2°35.087 -999 -999 -999 -999
2007-06-13 13:10:56 51°25.611 2°34.841 -999 -999 -999 -999
2007-06-13 13:11:56 51°25.481 2°34.596 -999 -999 -999 -999
2007-06-13 13:12:56 51°25.353 2°34.35 -999 -999 -999 -999
2007-06-13 13:13:56 51°25.224 2°34.103 -999 -999 -999 -999
2007-06-13 13:14:56 51°25.096 2°33.859 -999 -999 -999 -999
2007-06-13 13:15:56 51°24.969 2°33.612 -999 -999 -999 -999
2007-06-13 13:16:56 51°24.842 2°33.365 -999 -999 -999 -999
2007-06-13 13:17:56 51°24.716 2°33.124 -999 -999 -999 -999
2007-06-13 13:18:56 51°24.63 2°32.972 -999 -999 -999 -999
2007-06-13 13:19:56 51°24.576 2°32.927 -999 -999 -999 -999
2007-06-13 13:20:56 51°24.55 2°32.888 -999 -999 -999 -999
2007-06-13 13:21:56 51°24.535 2°32.873 -999 -999 -999 -999
2007-06-13 13:22:56 51°24.531 2°32.89 -999 -999 -999 -999
2007-06-13 13:23:56 51°24.505 2°32.895 -999 -999 -999 -999
2007-06-13 13:24:56 51°24.465 2°32.748 -999 -999 -999 -999
2007-06-13 13:25:56 51°24.547 2°32.589 -999 -999 -999 -999
2007-06-13 13:26:56 51°24.611 2°32.471 -999 -999 -999 -999
2007-06-13 13:27:56 51°24.645 2°32.358 -999 -999 -999 -999
2007-06-13 13:28:56 51°24.658 2°32.249 -999 -999 -999 -999
2007-06-13 13:29:56 51°24.679 2°32.151 -999 -999 -999 -999
2007-06-13 13:30:56 51°24.686 2°32.055 -999 -999 -999 -999
2007-06-13 13:31:56 51°24.706 2°31.958 -999 -999 -999 -999
2007-06-13 13:32:56 51°24.723 2°31.859 -999 -999 -999 -999
2007-06-13 13:33:56 51°24.743 2°31.759 -999 -999 -999 -999
2007-06-13 13:34:56 51°24.755 2°31.662 -999 -999 -999 -999
2007-06-13 13:35:56 51°24.792 2°31.585 -999 -999 -999 -999
2007-06-13 13:36:56 51°24.825 2°31.523 -999 -999 -999 -999
2007-06-13 13:37:56 51°24.808 2°31.469 -999 -999 -999 -999
2007-06-13 13:38:56 51°24.767 2°31.443 -999 -999 -999 -999
2007-06-13 13:39:56 51°24.728 2°31.505 -999 -999 -999 -999
2007-06-13 13:40:56 51°24.704 2°31.618 -999 -999 -999 -999
2007-06-13 13:41:56 51°24.704 2°31.722 -999 -999 -999 -999
2007-06-13 13:42:56 51°24.72 2°31.802 -999 -999 -999 -999
2007-06-13 13:43:56 51°24.741 2°31.866 -999 -999 -999 -999
2007-06-13 13:44:56 51°24.763 2°31.921 -999 -999 -999 -999
2007-06-13 13:45:56 51°24.786 2°31.967 -999 -999 -999 -999
2007-06-13 13:46:56 51°24.809 2°32.009 -999 -999 -999 -999
2007-06-13 13:47:56 51°24.832 2°32.047 -999 -999 -999 -999
2007-06-13 13:48:56 51°24.862 2°32.083 -999 -999 -999 -999
2007-06-13 13:49:56 51°24.918 2°32.086 -999 -999 -999 -999
2007-06-13 13:50:56 51°24.943 2°32.011 -999 -999 -999 -999
2007-06-13 13:51:56 51°24.915 2°31.913 -999 -999 -999 -999
2007-06-13 13:52:56 51°24.879 2°31.8 -999 -999 -999 -999
2007-06-13 13:53:56 51°24.869 2°31.724 -999 -999 -999 -999
2007-06-13 13:54:56 51°24.868 2°31.686 -999 -999 -999 -999
2007-06-13 13:55:56 51°24.877 2°31.668 -999 -999 -999 -999
2007-06-13 13:56:56 51°24.891 2°31.659 -999 -999 -999 -999
2007-06-13 13:57:56 51°24.906 2°31.656 -999 -999 -999 -999
2007-06-13 13:58:56 51°24.92 2°31.658 -999 -999 -999 -999
2007-06-13 13:59:56 51°24.933 2°31.662 -999 -999 -999 -999
2007-06-13 14:00:56 51°24.948 2°31.669 -999 -999 -999 -999
2007-06-13 14:01:56 51°24.963 2°31.679 -999 -999 -999 -999
2007-06-13 14:02:56 51°24.978 2°31.69 -999 -999 -999 -999
2007-06-13 14:03:56 51°24.993 2°31.703 -999 -999 -999 -999
2007-06-13 14:04:56 51°25.009 2°31.718 -999 -999 -999 -999
2007-06-13 14:05:56 51°25.025 2°31.734 -999 -999 -999 -999
2007-06-13 14:06:56 51°25.04 2°31.75 -999 -999 -999 -999
2007-06-13 14:07:56 51°25.055 2°31.766 -999 -999 -999 -999
2007-06-13 14:08:56 51°25.07 2°31.782 -999 -999 -999 -999
2007-06-13 14:09:56 51°25.086 2°31.794 -999 -999 -999 -999
2007-06-13 14:10:56 51°25.11 2°31.766 -999 -999 -999 -999
2007-06-13 14:11:56 51°25.104 2°31.719 -999 -999 -999 -999
2007-06-13 14:12:56 51°25.072 2°31.718 -999 -999 -999 -999
2007-06-13 14:13:56 51°25.047 2°31.733 -999 -999 -999 -999
2007-06-13 14:14:56 51°25.03 2°31.756 -999 -999 -999 -999
2007-06-13 14:15:56 51°25.021 2°31.778 -999 -999 -999 -999
2007-06-13 14:16:56 51°25.016 2°31.795 -999 -999 -999 -999
2007-06-13 14:17:56 51°25.016 2°31.809 -999 -999 -999 -999
2007-06-13 14:18:56 51°25.019 2°31.82 -999 -999 -999 -999
2007-06-13 14:19:56 51°25.023 2°31.83 -999 -999 -999 -999
2007-06-13 14:20:56 51°25.028 2°31.841 -999 -999 -999 -999
2007-06-13 14:21:56 51°25.036 2°31.853 -999 -999 -999 -999
2007-06-13 14:22:56 51°25.044 2°31.865 -999 -999 -999 -999
2007-06-13 14:23:56 51°25.053 2°31.875 -999 -999 -999 -999
2007-06-13 14:24:56 51°25.062 2°31.887 -999 -999 -999 -999
2007-06-13 14:25:56 51°25.072 2°31.898 -999 -999 -999 -999
2007-06-13 14:26:56 51°25.083 2°31.907 -999 -999 -999 -999
2007-06-13 14:27:56 51°25.095 2°31.916 -999 -999 -999 -999
2007-06-13 14:28:56 51°25.107 2°31.924 -999 -999 -999 -999
2007-06-13 14:29:56 51°25.114 2°31.933 -999 -999 -999 -999
2007-06-13 14:30:56 51°25.098 2°31.94 -999 -999 -999 -999
2007-06-13 14:31:56 51°25.074 2°31.919 -999 -999 -999 -999
2007-06-13 14:32:56 51°25.053 2°31.896 -999 -999 -999 -999
2007-06-13 14:33:56 51°25.036 2°31.877 -999 -999 -999 -999
2007-06-13 14:34:56 51°25.026 2°31.864 -999 -999 -999 -999
2007-06-13 14:35:56 51°25.02 2°31.859 -999 -999 -999 -999
2007-06-13 14:36:56 51°25.017 2°31.86 -999 -999 -999 -999
2007-06-13 14:37:56 51°25.017 2°31.864 -999 -999 -999 -999
2007-06-13 14:38:56 51°25.017 2°31.87 -999 -999 -999 -999
2007-06-13 14:39:56 51°25.019 2°31.877 -999 -999 -999 -999
2007-06-13 14:40:56 51°25.022 2°31.885 -999 -999 -999 -999
2007-06-13 14:41:56 51°25.026 2°31.895 -999 -999 -999 -999
2007-06-13 14:42:56 51°25.031 2°31.904 -999 -999 -999 -999
2007-06-13 14:43:56 51°25.037 2°31.913 -999 -999 -999 -999
2007-06-13 14:44:56 51°25.043 2°31.921 -999 -999 -999 -999
2007-06-13 14:45:56 51°25.049 2°31.929 -999 -999 -999 -999
2007-06-13 14:46:56 51°25.055 2°31.937 -999 -999 -999 -999
2007-06-13 14:47:56 51°25.061 2°31.944 -999 -999 -999 -999
2007-06-13 14:48:56 51°25.03 2°31.991 -999 -999 -999 -999
2007-06-13 14:49:56 51°24.984 2°32.051 -999 -999 -999 -999
2007-06-13 14:50:56 51°24.942 2°32.1 -999 -999 -999 -999
2007-06-13 14:51:56 51°24.912 2°32.126 -999 -999 -999 -999
2007-06-13 14:52:56 51°24.891 2°32.145 -999 -999 -999 -999
2007-06-13 14:53:56 51°24.865 2°32.153 -999 -999 -999 -999
2007-06-13 14:54:56 51°24.804 2°32.035 -999 -999 -999 -999
2007-06-13 14:55:56 51°24.8 2°31.84 -999 -999 -999 -999
2007-06-13 14:56:56 51°24.793 2°31.733 -999 -999 -999 -999
2007-06-13 14:57:56 51°24.774 2°31.684 -999 -999 -999 -999
2007-06-13 14:58:56 51°24.759 2°31.661 -999 -999 -999 -999
2007-06-13 14:59:56 51°24.748 2°31.65 -999 -999 -999 -999
2007-06-13 15:00:56 51°24.741 2°31.646 -999 -999 -999 -999
2007-06-13 15:01:56 51°24.738 2°31.645 -999 -999 -999 -999
2007-06-13 15:02:56 51°24.737 2°31.648 -999 -999 -999 -999
2007-06-13 15:03:56 51°24.739 2°31.653 -999 -999 -999 -999
2007-06-13 15:04:56 51°24.728 2°31.652 -999 -999 -999 -999
2007-06-13 15:05:55 51°24.655 2°31.682 -999 -999 -999 -999
2007-06-13 15:06:56 51°24.498 2°31.805 -999 -999 -999 -999
2007-06-13 15:07:56 51°24.315 2°31.972 -999 -999 -999 -999
2007-06-13 15:08:56 51°24.131 2°32.134 -999 -999 -999 -999
2007-06-13 15:09:56 51°23.947 2°32.295 -999 -999 -999 -999
2007-06-13 15:10:55 51°23.765 2°32.451 -999 -999 -999 -999
2007-06-13 15:11:56 51°23.577 2°32.613 -999 -999 -999 -999
2007-06-13 15:12:55 51°23.392 2°32.766 -999 -999 -999 -999
2007-06-13 15:13:56 51°23.203 2°32.922 -999 -999 -999 -999
2007-06-13 15:14:56 51°23.017 2°33.075 -999 -999 -999 -999
2007-06-13 15:15:56 51°22.829 2°33.227 -999 -999 -999 -999
2007-06-13 15:16:56 51°22.641 2°33.387 -999 -999 -999 -999
2007-06-13 15:17:56 51°22.461 2°33.57 -999 -999 -999 -999
2007-06-13 15:18:56 51°22.287 2°33.77 -999 -999 -999 -999
2007-06-13 15:19:56 51°22.119 2°33.971 -999 -999 -999 -999
2007-06-13 15:20:56 51°21.966 2°34.194 -999 -999 -999 -999
2007-06-13 15:21:56 51°21.809 2°34.417 -999 -999 -999 -999
2007-06-13 15:22:56 51°21.662 2°34.651 -999 -999 -999 -999
2007-06-13 15:23:56 51°21.518 2°34.883 -999 -999 -999 -999
2007-06-13 15:24:56 51°21.374 2°35.114 -999 -999 -999 -999
2007-06-13 15:25:56 51°21.226 2°35.343 -999 -999 -999 -999
2007-06-13 15:26:56 51°21.078 2°35.574 -999 -999 -999 -999
2007-06-13 15:27:56 51°20.928 2°35.804 -999 -999 -999 -999
2007-06-13 15:28:56 51°20.785 2°36.044 -999 -999 -999 -999
2007-06-13 15:29:56 51°20.642 2°36.287 -999 -999 -999 -999
2007-06-13 15:30:55 51°20.502 2°36.526 -999 -999 -999 -999
2007-06-13 15:31:56 51°20.358 2°36.776 -999 -999 -999 -999
2007-06-13 15:32:56 51°20.214 2°37.015 -999 -999 -999 -999
2007-06-13 15:33:56 51°20.074 2°37.255 -999 -999 -999 -999
2007-06-13 15:34:56 51°19.932 2°37.495 -999 -999 -999 -999
2007-06-13 15:35:56 51°19.787 2°37.736 -999 -999 -999 -999
2007-06-13 15:36:56 51°19.641 2°37.977 -999 -999 -999 -999
2007-06-13 15:37:56 51°19.497 2°38.217 -999 -999 -999 -999
2007-06-13 15:38:56 51°19.352 2°38.46 -999 -999 -999 -999
2007-06-13 15:39:56 51°19.207 2°38.705 -999 -999 -999 -999
2007-06-13 15:40:56 51°19.064 2°38.952 -999 -999 -999 -999
2007-06-13 15:41:56 51°18.921 2°39.195 -999 -999 -999 -999
2007-06-13 15:42:56 51°18.791 2°39.447 -999 -999 -999 -999
2007-06-13 15:43:56 51°18.669 2°39.712 -999 -999 -999 -999
2007-06-13 15:44:56 51°18.546 2°39.978 -999 -999 -999 -999
2007-06-13 15:45:56 51°18.428 2°40.245 -999 -999 -999 -999
2007-06-13 15:46:56 51°18.308 2°40.502 -999 -999 -999 -999
2007-06-13 15:47:56 51°18.186 2°40.764 -999 -999 -999 -999
2007-06-13 15:48:56 51°18.063 2°41.025 -999 -999 -999 -999
2007-06-13 15:49:56 51°17.937 2°41.291 -999 -999 -999 -999
2007-06-13 15:50:56 51°17.815 2°41.556 -999 -999 -999 -999
2007-06-13 15:51:56 51°17.688 2°41.821 -999 -999 -999 -999
2007-06-13 15:52:56 51°17.562 2°42.086 -999 -999 -999 -999
2007-06-13 15:53:56 51°17.438 2°42.352 -999 -999 -999 -999
2007-06-13 15:54:56 51°17.322 2°42.621 -999 -999 -999 -999
2007-06-13 15:55:56 51°17.212 2°42.878 -999 -999 -999 -999
2007-06-13 15:56:56 51°17.095 2°43.142 -999 -999 -999 -999
2007-06-13 15:57:56 51°16.978 2°43.41 -999 -999 -999 -999
2007-06-13 15:58:56 51°16.858 2°43.68 -999 -999 -999 -999
2007-06-13 15:59:56 51°16.738 2°43.954 -999 -999 -999 -999
2007-06-13 16:00:56 51°16.619 2°44.233 -999 -999 -999 -999
2007-06-13 16:01:56 51°16.503 2°44.515 -999 -999 -999 -999
2007-06-13 16:02:56 51°16.394 2°44.799 -999 -999 -999 -999
2007-06-13 16:03:56 51°16.326 2°45.106 -999 -999 -999 -999
2007-06-13 16:04:56 51°16.267 2°45.42 -999 -999 -999 -999
2007-06-13 16:05:56 51°16.208 2°45.731 -999 -999 -999 -999
2007-06-13 16:06:56 51°16.148 2°46.041 -999 -999 -999 -999
2007-06-13 16:07:56 51°16.086 2°46.351 -999 -999 -999 -999
2007-06-13 16:08:56 51°16.023 2°46.66 -999 -999 -999 -999
2007-06-13 16:09:56 51°15.96 2°46.969 -999 -999 -999 -999
2007-06-13 16:10:56 51°15.897 2°47.276 -999 -999 -999 -999
2007-06-13 16:11:56 51°15.851 2°47.589 -999 -999 -999 -999
2007-06-13 16:12:56 51°15.821 2°47.906 -999 -999 -999 -999
2007-06-13 16:13:56 51°15.789 2°48.221 -999 -999 -999 -999
2007-06-13 16:14:56 51°15.76 2°48.534 -999 -999 -999 -999
2007-06-13 16:15:56 51°15.732 2°48.849 -999 -999 -999 -999
2007-06-13 16:16:56 51°15.697 2°49.164 -999 -999 -999 -999
2007-06-13 16:17:56 51°15.645 2°49.476 -999 -999 -999 -999
2007-06-13 16:18:56 51°15.593 2°49.789 -999 -999 -999 -999
2007-06-13 16:19:56 51°15.541 2°50.101 -999 -999 -999 -999
2007-06-13 16:20:56 51°15.485 2°50.41 -999 -999 -999 -999
2007-06-13 16:21:56 51°15.425 2°50.716 -999 -999 -999 -999
2007-06-13 16:22:56 51°15.366 2°51.023 -999 -999 -999 -999
2007-06-13 16:23:56 51°15.304 2°51.328 -999 -999 -999 -999
2007-06-13 16:24:56 51°15.242 2°51.608 -999 -999 -999 -999
2007-06-13 16:25:56 51°15.183 2°51.85 -999 -999 -999 -999
2007-06-13 16:26:56 51°15.135 2°52.035 -999 -999 -999 -999
2007-06-13 16:27:56 51°15.081 2°52.213 -999 -999 -999 -999
2007-06-13 16:28:56 51°15.021 2°52.429 -999 -999 -999 -999
2007-06-13 16:29:56 51°14.964 2°52.623 -999 -999 -999 -999
2007-06-13 16:30:56 51°14.915 2°52.791 -999 -999 -999 -999
2007-06-13 16:31:56 51°14.868 2°52.982 -999 -999 -999 -999
2007-06-13 16:32:56 51°14.819 2°53.198 -999 -999 -999 -999
2007-06-13 16:33:56 51°14.78 2°53.441 -999 -999 -999 -999
2007-06-13 16:34:56 51°14.742 2°53.688 -999 -999 -999 -999
2007-06-13 16:35:56 51°14.704 2°53.947 -999 -999 -999 -999
2007-06-13 16:36:56 51°14.654 2°54.228 -999 -999 -999 -999
2007-06-13 16:37:56 51°14.576 2°54.493 -999 -999 -999 -999
2007-06-13 16:38:56 51°14.48 2°54.746 -999 -999 -999 -999
2007-06-13 16:39:56 51°14.385 2°55 -999 -999 -999 -999
2007-06-13 16:40:56 51°14.283 2°55.225 -999 -999 -999 -999
2007-06-13 16:41:56 51°14.173 2°55.382 -999 -999 -999 -999
2007-06-13 16:42:56 51°14.071 2°55.455 -999 -999 -999 -999
2007-06-13 16:43:56 51°13.982 2°55.522 -999 -999 -999 -999
2007-06-13 16:44:56 51°13.898 2°55.583 -999 -999 -999 -999
2007-06-13 16:45:56 51°13.812 2°55.647 -999 -999 -999 -999
2007-06-13 16:46:56 51°13.734 2°55.749 -999 -999 -999 -999
2007-06-13 16:47:56 51°13.677 2°55.859 -999 -999 -999 -999
2007-06-13 16:48:56 51°13.63 2°55.962 -999 -999 -999 -999
2007-06-13 16:49:56 51°13.605 2°56.047 -999 -999 -999 -999
2007-06-13 16:50:56 51°13.599 2°56.086 -999 -999 -999 -999
2007-06-13 16:51:56 51°13.599 2°56.091 -999 -999 -999 -999